Victoria, TX

8:36 PM CST on December 15, 2019 (GMT -0600)
Victoria Regional

Weather History for KVCT - October, 2019

Change the Weather History Date:

Saturday, October 26, 2019

  Actual Average Record
Temperature  
Mean Temperature 58 °F 70 °F  
Max Temperature 72 °F 81 °F 93 °F (1910)
Min Temperature 44 °F 58 °F 39 °F (1945)
Degree Days  
Heating Degree Days 7 1  
Month to date heating degree days 15 11  
Since 1 July heating degree days 15 12  
Cooling Degree Days 0 6  
Month to date cooling degree days 284 217  
Year to date cooling degree days 3549 3015  
Growing Degree Days 8 (Base 50)    
Moisture  
Dew Point 44 °F    
Average Humidity 66    
Maximum Humidity 89    
Minimum Humidity 35    
Precipitation  
Precipitation 0.00 in 0.14 in 3.17 in (1989)
Month to date precipitation 2.32 3.99  
Year to date precipitation 21.68 35.02  
Snow  
Snow 0.00 in 0.00 in 0.00 in (2002)
Month to date snowfall 0.0 0.0  
Since 1 July snowfall 0.0 0.0  
Since 1 September snowfall 0.0 0.0  
Snow Depth 0.00 in    
Sea Level Pressure  
Sea Level Pressure 29.96 in    
Wind  
Wind Speed 8 mph ()    
Max Wind Speed 16 mph    
Max Gust Speed 23 mph    
Visibility 10.0 miles    
Events      
T = Trace of Precipitation, MM = Missing Value Source: Averaged Metar Reports

Daily Weather History Graph

Daily Weather History Graph

Search for Another Location

Airport or City:

Astronomy

Oct. 26, 2019 Rise Set
Actual Time 7:35 AM CDT 6:47 PM CDT
Civil Twilight 7:11 AM CDT 7:11 PM CDT
Nautical Twilight 6:43 AM CDT 7:39 PM CDT
Astronomical Twilight 6:16 AM CDT 8:06 PM CDT
Moon 5:48 AM CDT (10/26) 6:11 PM CDT (10/26)
Length of Visible Light 11h 59m
Length of Day
11h 11m
Waning Crescent, 3% of the Moon is Illuminated
Oct 26
Waning Crescent
Oct 27
New
Nov 4
First Quarter
Nov 12
Full
Nov 19
Last Quarter

Hourly Weather History & Observations

Time (CDT) Temp. Windchill Dew Point Humidity Pressure Visibility Wind Dir Wind Speed Gust Speed Precip Events Conditions
12:51 AM 48.0 °F - 42.1 °F 80% 30.02 in 10.0 mi NW 9.2 mph - N/A   Clear
1:51 AM 46.0 °F 42.5 °F 42.1 °F 86% 30.02 in 10.0 mi NW 6.9 mph - N/A   Clear
2:51 AM 46.0 °F 41.4 °F 42.1 °F 86% 29.99 in 10.0 mi WNW 9.2 mph - N/A   Clear
3:51 AM 46.0 °F 41.0 °F 42.1 °F 86% 29.98 in 10.0 mi WNW 10.4 mph - N/A   Clear
4:51 AM 46.0 °F 41.0 °F 42.1 °F 86% 29.98 in 10.0 mi WNW 10.4 mph - N/A   Clear
5:51 AM 45.0 °F 40.1 °F 41.0 °F 86% 29.99 in 10.0 mi NW 9.2 mph - N/A   Clear
6:51 AM 45.0 °F 40.1 °F 41.0 °F 86% 30.00 in 10.0 mi WNW 9.2 mph - N/A   Clear
7:51 AM 46.0 °F 41.4 °F 41.0 °F 83% 30.00 in 10.0 mi WNW 9.2 mph - N/A   Clear
8:51 AM 50.0 °F - 43.0 °F 77% 30.01 in 10.0 mi West 6.9 mph - N/A   Clear
9:51 AM 55.0 °F - 42.1 °F 62% 30.02 in 10.0 mi West 12.7 mph - N/A   Clear
10:51 AM 59.0 °F - 43.0 °F 55% 30.03 in 10.0 mi West 15.0 mph - N/A   Clear
11:51 AM 62.1 °F - 44.1 °F 52% 30.01 in 10.0 mi West 12.7 mph - N/A   Clear
12:51 PM 66.0 °F - 45.0 °F 47% 29.99 in 10.0 mi WNW 8.1 mph - N/A   Clear
1:51 PM 69.1 °F - 45.0 °F 42% 29.96 in 10.0 mi WNW 10.4 mph - N/A   Clear
2:51 PM 70.0 °F - 44.1 °F 39% 29.93 in 10.0 mi West 9.2 mph - N/A   Clear
3:51 PM 72.0 °F - 44.1 °F 37% 29.91 in 10.0 mi West 10.4 mph 17.3 mph N/A   Clear
4:51 PM 72.0 °F - 44.1 °F 37% 29.89 in 10.0 mi WNW 9.2 mph - N/A   Clear
5:51 PM 71.1 °F - 43.0 °F 36% 29.89 in 10.0 mi West 8.1 mph - N/A   Clear
6:51 PM 64.0 °F - 46.0 °F 52% 29.89 in 10.0 mi WNW 5.8 mph - N/A   Clear
7:51 PM 59.0 °F - 48.0 °F 67% 29.89 in 10.0 mi NNW 3.5 mph - N/A   Clear
8:51 PM 55.0 °F - 46.9 °F 74% 29.89 in 10.0 mi Calm Calm - N/A   Clear
10:51 PM 53.1 °F - 46.0 °F 77% 29.92 in 10.0 mi South 6.9 mph - N/A   Clear
11:51 PM 52.0 °F - 45.0 °F 77% 29.93 in 10.0 mi SSE 3.5 mph - N/A   Clear